Lamar, CO

6:27 AM MST on December 08, 2019 (GMT -0700)
Lamar Municipal

Weather History for KLAA - October, 2019

Change the Weather History Date:

Tuesday, October 15, 2019

  Actual Average Record
Temperature  
Mean Temperature 50 °F 53 °F  
Max Temperature 68 °F 71 °F 92 °F (1934)
Min Temperature 33 °F 36 °F 18 °F (2018)
Degree Days  
Heating Degree Days 14 12  
Month to date heating degree days 138  
Since 1 July heating degree days 221  
Cooling Degree Days 0 0  
Month to date cooling degree days 8  
Year to date cooling degree days 1120  
Moisture  
Dew Point 24 °F    
Average Humidity 36    
Maximum Humidity 52    
Minimum Humidity 21    
Precipitation  
Precipitation 0.00 in 0.03 in 0.70 in (1942)
Month to date precipitation 0.39  
Year to date precipitation 14.01  
Sea Level Pressure  
Sea Level Pressure 30.08 in    
Wind  
Wind Speed 6 mph (NNE)    
Max Wind Speed 14 mph    
Max Gust Speed 26 mph    
Visibility 10 miles    
Events      
T = Trace of Precipitation, MM = Missing Value Source: NWS Daily Summary

Daily Weather History Graph

Daily Weather History Graph

Search for Another Location

Airport or City:

Astronomy

Oct. 15, 2019 Rise Set
Actual Time 6:59 AM MDT 6:13 PM MDT
Civil Twilight 6:32 AM MDT 6:39 PM MDT
Nautical Twilight 6:02 AM MDT 7:10 PM MDT
Astronomical Twilight 5:31 AM MDT 7:40 PM MDT
Moon 7:35 PM MDT (10/15) 8:31 AM MDT (10/15)
Length of Visible Light 12h 07m
Length of Day
11h 14m
Full, 97% of the Moon is Illuminated
Oct 15
Full
Oct 21
Last Quarter
Oct 27
New
Nov 4
First Quarter
Nov 12
Full

Hourly Weather History & Observations

Time (MDT) Temp. Windchill Dew Point Humidity Pressure Visibility Wind Dir Wind Speed Gust Speed Precip Events Conditions
12:53 AM 46.9 °F - 17.1 °F 30% 29.78 in 10.0 mi NNW 3.5 mph - N/A   Clear
1:53 AM 45.0 °F 42.6 °F 15.1 °F 30% 29.82 in 10.0 mi WNW 4.6 mph - N/A   Clear
2:53 AM 46.0 °F - 14.0 °F 28% 29.82 in 10.0 mi Calm Calm - N/A   Clear
3:53 AM 46.0 °F 40.6 °F 14.0 °F 28% 29.86 in 10.0 mi North 11.5 mph 18.4 mph N/A   Clear
4:53 AM 48.0 °F - 24.1 °F 39% 29.93 in 10.0 mi North 13.8 mph - N/A   Clear
5:53 AM 46.9 °F - 28.0 °F 48% 30.01 in 10.0 mi NE 8.1 mph - N/A   Clear
6:53 AM 46.0 °F 40.2 °F 28.9 °F 51% 30.06 in 10.0 mi NNE 12.7 mph 26.5 mph N/A   Clear
7:53 AM 46.9 °F - 28.9 °F 50% 30.11 in 10.0 mi NNW 3.5 mph - N/A   Clear
8:53 AM 48.9 °F - 28.9 °F 46% 30.14 in 10.0 mi NNW 8.1 mph - N/A   Clear
9:53 AM 54.0 °F - 28.0 °F 37% 30.17 in 10.0 mi North 6.9 mph - N/A   Clear
10:53 AM 57.9 °F - 26.1 °F 30% 30.17 in 10.0 mi NNE 12.7 mph - N/A   Clear
11:53 AM 60.1 °F - 28.0 °F 30% 30.15 in 10.0 mi North 5.8 mph 17.3 mph N/A   Clear
12:53 PM 64.0 °F - 26.1 °F 24% 30.12 in 10.0 mi North 9.2 mph - N/A   Clear
1:53 PM 64.9 °F - 27.0 °F 24% 30.11 in 10.0 mi NNW 9.2 mph 19.6 mph N/A   Clear
2:53 PM 68.0 °F - 28.0 °F 22% 30.09 in 10.0 mi NNE 9.2 mph - N/A   Clear
3:53 PM 68.0 °F - 26.1 °F 21% 30.08 in 10.0 mi NNE 5.8 mph - N/A   Clear
4:53 PM 66.9 °F - 26.1 °F 21% 30.09 in 10.0 mi ENE 8.1 mph - N/A   Clear
5:53 PM 61.0 °F - 25.0 °F 25% 30.12 in 10.0 mi East 8.1 mph - N/A   Clear
6:53 PM 50.0 °F - 23.0 °F 35% 30.16 in 10.0 mi East 6.9 mph - N/A   Clear
7:53 PM 48.0 °F - 23.0 °F 37% 30.19 in 10.0 mi East 5.8 mph - N/A   Clear
8:53 PM 42.1 °F - 21.9 °F 45% 30.22 in 10.0 mi Calm Calm - N/A   Clear
9:53 PM 39.0 °F 34.8 °F 21.0 °F 49% 30.25 in 10.0 mi SSW 5.8 mph - 0.00 in   Clear
10:53 PM 33.1 °F 28.7 °F 17.1 °F 52% 30.27 in 10.0 mi SW 4.6 mph - N/A   Clear
11:53 PM 37.0 °F - 19.9 °F 50% 30.25 in 10.0 mi Calm Calm - N/A   Clear